CSS (TIANHE-1)
1 48274U 21035A   25281.79754524  .00038456  00000-0  44103-3 0  9998
2 48274  41.4657  51.4390 0002812 214.1661 145.8997 15.61328190253885
TUBIN
1 48900U 21059X   25281.84998926  .00128740  00000-0  83648-3 0  9995
2 48900  97.6744 102.1014 0002170 149.4131 210.7261 15.75585551239024
LEDSAT
1 49069U 21073D   25281.20742613  .00953707  48117-3  14416-2 0  9997
2 49069  97.3647   9.8945 0007514 286.8494  73.1963 16.04645552230393
CUTE
1 49263U 21088D   25281.81683463  .00031007  00000-0  49443-3 0  9998
2 49263  97.4405   2.0172 0006738 141.4790 218.6945 15.53157548223205
TeikyoSat 4
1 49396U 21102B   25281.52605971  .00003085  00000-0  20293-3 0  9995
2 49396  97.3987 315.5584 0013977  80.3265 279.9542 15.08201194214778
Z-Sat
1 49399U 21102E   25281.82738778  .00006316  00000-0  33503-3 0  9991
2 49399  97.3677 319.7272 0018865  47.8103 312.4728 15.15542951215336
KOSEN 1
1 49402U 21102H   25281.38871246  .00010962  00000-0  47967-3 0  9996
2 49402  97.3575 323.6717 0015635  22.3364 337.8550 15.22112622215650
HO-113
1 50466U 21131B   25281.86799591  .00000819  00000-0  26880-3 0  9996
2 50466  98.5075  10.6171 0005134 125.8863 234.2803 14.40977937198910
SNUGLITE 2
1 52899U 22065F   25281.85945810  .00001836  00000-0  36279-3 0  9994
2 52899  98.1868  62.7955 0008717  93.3140 266.9059 14.63560464174224
UmKA 1 (RS40S)
1 57172U 23091G   25281.85848959  .00009228  00000-0  47069-3 0  9991
2 57172  97.5439 336.6288 0012334 274.6532  85.3292 15.16901424125852
CubeBel-2 (EU11S)
1 57175U 23091K   25281.86836411  .00014801  00000-0  65269-3 0  9990
2 57175  97.5437 338.5950 0009936 279.4245  80.5867 15.21847361125982
ENSO
1 58470U 23185J   25281.17590782  .00294314  00000-0  15417-2 0  9993
2 58470  97.3571   1.5650 0003927 305.3786  54.7115 15.80000096103880
SONATE-2
1 59112U 24043Q   25281.33736412  .00032045  00000-0  78580-3 0  9993
2 59112  97.5292  55.4032 0010243  44.3932 315.8134 15.40606074 88899
MO-122
1 60209U 24125G   25281.50939909  .00034584  00000-0  82669-3 0  9991
2 60209  97.2621 132.0514 0018278  64.0934 296.2194 15.41238824 70541
GRBBeta
1 60237U 24128C   25281.47593144  .00006992  00000-0  50261-3 0  9993
2 60237  61.9931  17.7037 0056856  82.9218 277.8335 15.03858077 68377
Curium One
1 60242U 24128H   25281.48360139  .00012198  00000-0  78860-3 0  9996
2 60242  61.9827  13.9633 0056682  79.4652 281.2820 15.07253660 68444
ROBUSTA-3A
1 60243U 24128J   25281.52717976  .00012404  00000-0  81504-3 0  9996
2 60243  61.9898  15.0732 0056214  76.9862 283.7499 15.06667776 68436
CatSat
1 60246U 24125J   25281.52900975  .00035617  00000-0  10234-2 0  9991
2 60246  97.2435 129.8486 0039009  24.9247 335.3869 15.34964102 68508
HYPERVIEW-1G (RS66S)
1 61772U 24199AP  25281.89124723  .00040487  00000-0  95811-3 0  9992
2 61772  97.3307 150.7990 0013929 111.7004 248.5727 15.41584515 95607
AO-123
1 61781U 24199AY  25281.83831047  .00011957  00000-0  40954-3 0  9998
2 61781  97.3333 148.0542 0016738 123.2416 237.0432 15.30225478 95418
ZIMSAT 2
1 61783U 24199BA  25281.87860771  .00105436  00000-0  16637-2 0  9996
2 61783  97.3245 152.7098 0012817 104.0777 256.1901 15.53063369 98882
HADES-R (SO-124)
1 62690U 25009CK  25281.18879513  .00093232  00000-0  22357-2 0  9999
2 62690  97.3992   2.2535 0001213   8.1172 352.0094 15.41041586 40638
HYDRA-T
1 62692U 25009CM  25281.20958864  .00095292  00000-0  22399-2 0  9995
2 62692  97.3992   2.3780 0001166 345.5587  14.5626 15.41637149 40646
JINJUSat 1B
1 63210U 25052A   25280.98170715  .00023645  00000-0  98253-3 0  9991
2 63210  97.4241 173.6823 0001540 250.9285 109.1786 15.23805727 31569
NUSHSAT 1
1 63211U 25052B   25281.20946610  .00022988  00000-0  93775-3 0  9996
2 63211  97.4217 173.9601 0001377 260.6767  99.4314 15.24434285 31602
TEVEL2-4
1 63213U 25052D   25281.44869534  .00022858  00000-0  94533-3 0  9992
2 63213  97.4139 173.8755 0000966 329.1979  30.9201 15.23972609 31639
TEVEL2-5
1 63214U 25052E   25281.64863089  .00022415  00000-0  92818-3 0  9997
2 63214  97.4137 174.0671 0000971 328.8464  31.2716 15.23935477 31669
TEVEL2-6
1 63215U 25052F   25281.45698073  .00022771  00000-0  94422-3 0  9994
2 63215  97.4140 173.8686 0001058 326.5315  33.5855 15.23884376 31631
TEVEL2-1
1 63217U 25052H   25281.68400616  .00021246  00000-0  88821-3 0  9997
2 63217  97.4113 173.9559 0001758 346.1070  14.0118 15.23622173 31660
TEVEL2-3
1 63218U 25052J   25281.22418347  .00021268  00000-0  88934-3 0  9997
2 63218  97.4119 173.5040 0001827 347.6037  12.5155 15.23613947 31599
TEVEL2-2
1 63219U 25052K   25281.42206090  .00021078  00000-0  88162-3 0  9992
2 63219  97.4115 173.6969 0001794 346.9730  13.1460 15.23608046 31626
TEVEL2-9
1 63237U 25052AD  25281.78455200  .00021406  00000-0  93055-3 0  9992
2 63237  97.4176 173.8455 0006060 329.1925  30.8955 15.22280166 31651
TEVEL2-7
1 63238U 25052AE  25281.20139579  .00020998  00000-0  91639-3 0  9999
2 63238  97.4179 173.2554 0006268 330.7445  29.3439 15.22148955 31563
TEVEL2-8
1 63239U 25052AF  25281.60028066  .00021042  00000-0  91866-3 0  9995
2 63239  97.4181 173.6365 0006215 329.7409  30.3468 15.22136803 31621
HYDRA-W
1 63490U 25052BL  25281.42928304  .00060269  00000-0  19645-2 0  9996
2 63490  97.4114 174.7798 0007060 324.1040  35.9726 15.31573975 31697
HADES-ICM (SO-125)
1 63492U 25052BN  25280.97153470  .00067531  00000-0  22722-2 0  9990
2 63492  97.4138 174.1878 0007877 329.7973  30.2812 15.30507391 31614
